カタログに戻る

STARLINK-4386

運用中通信PO
NORAD 53649·PAYLOAD·🇺🇸 United States

打ち上げ Aug 31, 2022 から Vandenberg Space Force Base

Loading…

次のパス (今後24時間)

TLE

最新Source: CelesTrak SupGP

元期: Sep 15, 2026, 01:58 UTC

1 53649C 22105B   26258.08243056  .00605720  00000+0  10266-2 0  2582
2 53649  97.5856 149.8258 0001491 136.4161 117.0258 16.02351858    17

AllMySatでSTARLINK-4386をリアルタイム追跡

Download on the App Store